Regional Weather Roundup
Issued by NWS

Home | Current Version | Previous Version | Text Only | Print | Product List | Glossary Off
Versions: 1 2 3 4 5 6 7 8 9 10 11 12 13 14 15 16 17 18 19 20 21 22 23 24 25 26 27 28 29 30 31 32 33 34 35 36 37 38 39 40 41 42 43 44 45 46 47 48 49 50

000
ASUS43 KTOP 292308
RWRKS

WEATHER ROUNDUP FOR KANSAS
NATIONAL WEATHER SERVICE GOODLAND KS
600 PM CDT FRI JUL 29 2016

NOTE:  "FAIR" INDICATES FEW OR NO CLOUDS BELOW 12,000 FEET WITH NO
SIGNIFICANT WEATHER AND/OR OBSTRUCTIONS TO VISIBILITY.

KSZ001>006-013>018-027>032-041>047-300000-
NORTHWEST KANSAS

CITY           SKY/WX    TMP DP  RH WIND       PRES   REMARKS
GOODLAND       SUNNY     77  65  66 E10       30.08F
HAYS           SUNNY     86  61  42 CALM      30.00F
HILL CITY      SUNNY     86  62  44 MISG      30.01F
RUSSELL        SUNNY     88  60  38 NE6       29.98F
$$

KSZ061>065-074>080-084>089-300000-
SOUTHWEST KANSAS

CITY           SKY/WX    TMP DP  RH WIND       PRES   REMARKS
DODGE CITY     MOSUNNY   85  61  44 CALM      30.02F
ELKHART          N/A     85  63  47 SE8         N/A
GARDEN CITY    CLOUDY    82  65  56 E6        30.04F
GREAT BEND     SUNNY     82  64  54 W5        29.99F
LIBERAL        SUNNY     84  63  48 SE7       30.05F
PRATT          CLOUDY    82  64  55 NW6       30.01F
$$

KSZ066>073-081>083-090>101-300000-
SOUTHEAST KANSAS

CITY           SKY/WX    TMP DP  RH WIND       PRES   REMARKS
CHANUTE        MOSUNNY   87  70  56 NE6       29.96S
COFFEYVILLE    PTSUNNY   86  69  56 N5        29.96S
HUTCHINSON     SUNNY     85  69  58 CALM      29.99F
MEDICINE LODGE   N/A     89  60  37 N6        29.97F
NEWTON         MOSUNNY   83  68  60 E6        30.00S
PARSONS        MOSUNNY   87  70  56 N6        29.98R
WICHITA INTL   MOSUNNY   89  66  46 NW7       29.98F
WICHITA JABRA  SUNNY     84  69  60 NE7       29.99S
WICHITA MCCONL SUNNY     86  67  52 N8        29.98F
WINFIELD       CLOUDY    88  64  44 N5        29.99S
$$

KSZ007>012-019>026-033>040-048>060-102>105-300000-
NORTHEAST KANSAS

CITY           SKY/WX    TMP DP  RH WIND       PRES   REMARKS
CONCORDIA      CLOUDY    81  65  58 NE5       29.99F
EMPORIA        MOSUNNY   84  68  58 VRB5      29.98S
LAWRENCE       MOSUNNY   85  65  51 N8        29.97S
MANHATTAN      SUNNY     85  65  51 N5        29.97F
MARYSVILLE     MOSUNNY   82  61  47 NE5       30.00S
OLATHE IND     SUNNY     84  63  49 N9        29.98S
OLATHE EXE     MOSUNNY   85  62  46 N7        29.97F
SALINA         MOSUNNY   88  65  46 NE7       29.98F
TOPEKA BILLARD MOSUNNY   84  65  52 N8        29.97S
TOPEKA FORBES  SUNNY     85  64  49 N7        29.98S
$$



USA.gov is the U.S. government's official web portal to all federal, state and local government web resources and services.